Location: Unspecified
(42.0334°N, 93.6656°W)
Time: 23:31:48
(UTC-05:00)

Amateur Radio Satellites - All Passes

Search period start: 25 July 2016 23:01
Search period end: 26 July 2016 23:01
Location: Unspecified, 42.0334°N, 93.6656°W

Satellite Date Start Highest point End Downlink Frequencies (MHz)
Time Altitude Azimuth
CUBEBUG 1 25 Jul 23:05:41 23:08:45 19° 65° (ENE) 23:11:50 437.445
PRISM 25 Jul 23:21:55 23:23:56 13° 297° (WNW) 23:25:57 437.425
YUBILEINY 25 Jul 23:25:02 23:31:57 27° 279° (W) 23:38:50 435.215
M-CUBED/EXP-1 PRIME 25 Jul 23:25:32 23:26:31 11° 267° (W) 23:27:31 437.505
AIST 2 25 Jul 23:27:15 23:30:24 21° 316° (NW) 23:33:34 435.215
TIGRISAT 25 Jul 23:41:41 23:46:23 83° 105° (ESE) 23:50:56 435.000
AO-85 25 Jul 23:43:25 23:47:52 89° 203° (SSW) 23:51:55 145.980
AISAT 25 Jul 23:43:32 23:47:41 44° 71° (ENE) 23:51:53 437.250
DX 1 25 Jul 23:49:05 23:53:02 36° 70° (ENE) 23:57:00 434.975-435.025
NANOSAT C BR1 25 Jul 23:53:21 23:56:10 17° 92° (E) 23:58:58 145.865
UNISAT 6 25 Jul 23:57:35 00:02:13 64° 286° (WNW) 00:06:43 437.425
DUCHIFAT 1 25 Jul 23:58:20 00:01:16 18° 93° (E) 00:04:11 145.980
HUMSAT D 26 Jul 00:03:08 00:05:04 13° 270° (W) 00:07:01 437.325/437.525
UKube-1 26 Jul 00:05:37 00:09:41 43° 71° (ENE) 00:13:46 .
50 SAT 26 Jul 00:08:36 00:12:17 87° 78° (ENE) 00:15:57 437.505
ESTCUBE 1 26 Jul 00:11:43 00:16:08 56° 260° (W) 00:20:34 437.505/2401.250
Cosmos 2504 26 Jul 00:12:19 00:19:27 34° 276° (W) 00:26:07 435.465 / 435.565
QB50P1 26 Jul 00:14:05 00:17:53 30° 96° (E) 00:21:38 145.935-145.965
BUGSAT 1 26 Jul 00:20:03 00:22:15 14° 91° (E) 00:24:26 437.445
POPSAT HIP 1 26 Jul 00:20:16 00:24:13 34° 97° (E) 00:28:08 437.405
AIST 1 26 Jul 00:32:07 00:35:47 26° 74° (ENE) 00:39:27
ISS 26 Jul 00:34:09 00:36:38 20° 345° (NNW) 00:39:08 145.825
VELOX 1 26 Jul 00:35:07 00:39:23 52° 260° (W) 00:43:42 145.980
ANTELSAT 26 Jul 00:36:43 00:40:36 27° 293° (WNW) 00:44:25 437.575/2403.000
QB50P2 26 Jul 00:40:34 00:44:51 64° 101° (E) 00:49:06 145.880/145.840
CUBEBUG 1 26 Jul 00:40:43 00:44:45 39° 262° (W) 00:48:49 437.445
SPROUT 26 Jul 00:41:46 00:46:02 84° 77° (ENE) 00:50:21 437.525
POLYITAN 1 26 Jul 00:43:13 00:47:30 65° 101° (E) 00:51:45 437.675
JAS-2 26 Jul 00:44:40 00:48:41 21° 94° (E) 00:52:52 435.910
Cosmos 2491 26 Jul 00:51:10 00:56:24 17° 301° (WNW) 01:01:39 435.465 / 435.565
TIGRISAT 26 Jul 01:20:47 01:22:20 12° 300° (WNW) 01:23:52 435.000
AISAT 26 Jul 01:21:32 01:24:23 17° 268° (W) 01:27:15 437.250
BEESAT 26 Jul 01:23:28 01:25:46 14° 60° (ENE) 01:28:06 436.000
Oscar 19 26 Jul 01:24:24 01:26:39 13° 89° (E) 01:28:54 437.125/150
DX 1 26 Jul 01:26:06 01:29:19 20° 266° (W) 01:32:35 434.975-435.025
NANOSAT C BR1 26 Jul 01:28:03 01:32:06 42° 288° (WNW) 01:36:07 145.865
DUCHIFAT 1 26 Jul 01:33:07 01:37:07 40° 289° (WNW) 01:41:06 145.980
GONETS M04 26 Jul 01:35:39 01:41:48 20° 62° (ENE) 01:47:56
TISAT 1 26 Jul 01:42:48 01:46:58 85° 256° (WSW) 01:51:13 437.305
UKube-1 26 Jul 01:43:07 01:45:56 17° 267° (W) 01:48:45 .
ITUPSAT 1 26 Jul 01:44:07 01:47:40 21° 64° (ENE) 01:51:14 437.325
QB50P1 26 Jul 01:50:02 01:53:31 24° 293° (WNW) 01:56:58 145.935-145.965
BUGSAT 1 26 Jul 01:53:46 01:57:55 52° 287° (WNW) 02:02:04 437.445
POPSAT HIP 1 26 Jul 01:56:30 01:59:47 22° 294° (WNW) 02:03:03 437.405
AIST 1 26 Jul 02:09:41 02:13:18 26° 271° (W) 02:16:54
ISS 26 Jul 02:11:54 02:13:58 16° 5° (N) 02:16:02 145.825
QB50P2 26 Jul 02:18:12 02:20:07 13° 298° (WNW) 02:22:03 145.880/145.840
POLYITAN 1 26 Jul 02:20:54 02:22:46 13° 298° (WNW) 02:24:37 437.675
JAS-2 26 Jul 02:28:58 02:34:00 48° 289° (WNW) 02:39:23 435.910
Gurwin Techsat 1B 26 Jul 02:31:06 02:35:30 26° 94° (E) 02:39:51 435.225
SWISSCUBE 26 Jul 02:36:36 02:41:22 75° 75° (ENE) 02:46:11 437.505
BEESAT 3 26 Jul 02:39:59 02:41:20 11° 38° (NE) 02:42:40 437.485
ITAMSAT 1 26 Jul 02:55:23 02:57:50 13° 90° (E) 03:00:17 435.822/435.867
BEESAT 26 Jul 02:58:10 03:02:56 75° 257° (WSW) 03:07:45 436.000
Oscar 19 26 Jul 03:01:21 03:06:32 77° 285° (WNW) 03:11:42 437.125/150
AO-7 26 Jul 03:07:09 03:08:22 10° 85° (E) 03:09:34 29.400- 29.500
Cosmos 2499 26 Jul 03:15:05 03:22:52 54° 76° (ENE) 03:30:01 435.465 / 435.565
ITUPSAT 1 26 Jul 03:20:35 03:25:12 45° 261° (W) 03:29:49 437.325
KKS-1 26 Jul 03:28:10 03:31:53 27° 67° (ENE) 03:35:37 437.445
GONETS M04 26 Jul 03:31:01 03:39:53 89° 264° (W) 03:48:44
ISS 26 Jul 03:48:06 03:51:07 33° 25° (NNE) 03:54:08 145.825
MOZHAYETS 4 26 Jul 03:51:38 03:56:05 48° 72° (ENE) 04:00:33
PCSat 26 Jul 03:59:19 04:03:24 21° 44° (NE) 04:07:25 145.827
CUSAT 1 26 Jul 04:02:15 04:06:12 34° 97° (E) 04:09:21 437.405
STARS 26 Jul 04:10:16 04:14:17 37° 70° (ENE) 04:18:21 437.465
Gurwin Techsat 1B 26 Jul 04:10:35 04:15:34 41° 291° (WNW) 04:20:31 435.225
DANDE 26 Jul 04:11:29 04:15:44 22° 94° (E) 04:19:14 436.750
BEESAT 3 26 Jul 04:15:41 04:19:40 81° 57° (ENE) 04:23:37 437.485
SWISSCUBE 26 Jul 04:18:01 04:19:41 12° 271° (W) 04:21:22 437.505
BEESAT 2 26 Jul 04:19:02 04:22:56 47° 53° (NE) 04:26:47 435.950
ITAMSAT 1 26 Jul 04:32:40 04:37:52 75° 287° (WNW) 04:43:01 435.822/435.867
Oscar 19 26 Jul 04:43:53 04:44:58 11° 303° (WNW) 04:46:04 437.125/150
AO-7 26 Jul 04:54:25 05:02:43 63° 104° (ESE) 05:10:56 29.400- 29.500
KKS-1 26 Jul 05:04:29 05:08:21 29° 264° (W) 05:12:15 437.445
CUBESAT XI-V 26 Jul 05:07:36 05:11:50 37° 70° (ENE) 05:16:04 437.345
Cosmos 2499 26 Jul 05:09:01 05:15:25 29° 277° (W) 05:21:28 435.465 / 435.565
ISS 26 Jul 05:24:33 05:27:33 34° 222° (SW) 05:30:32 145.825
GONETS M04 26 Jul 05:30:02 05:35:23 18° 283° (WNW) 05:40:46
MOZHAYETS 4 26 Jul 05:30:27 05:33:30 17° 268° (W) 05:36:33
PCSat 26 Jul 05:41:55 05:47:20 71° 243° (WSW) 05:52:42 145.827
CUSAT 1 26 Jul 05:46:09 05:48:07 13° 285° (WNW) 05:49:53 437.405
STARS 26 Jul 05:47:27 05:50:45 21° 266° (W) 05:54:04 437.465
DANDE 26 Jul 05:53:01 05:58:25 40° 282° (WNW) 06:02:33 436.750
BEESAT 2 26 Jul 05:57:56 06:00:23 16° 249° (WSW) 06:02:50 435.950
STRAND 1 26 Jul 06:07:58 06:10:14 13° 58° (ENE) 06:12:30 437.568
AIST 2 26 Jul 06:08:40 06:12:30 35° 50° (NE) 06:16:21 435.215
ITAMSAT 1 26 Jul 06:15:35 06:16:25 10° 304° (NW) 06:17:14 435.822/435.867
BRITE-PL 26 Jul 06:16:43 06:20:33 23° 95° (E) 06:24:35 437.365/2234.400
HORYU 2 26 Jul 06:18:25 06:22:56 81° 104° (ESE) 06:27:23 437.375
NOAA 15 26 Jul 06:26:49 06:30:53 22° 94° (E) 06:34:54 137.62
NOAA 18 26 Jul 06:28:12 06:31:48 17° 91° (E) 06:35:21 137.9125
O/OREOS (USA 219) 26 Jul 06:36:21 06:40:28 33° 60° (ENE) 06:44:35 437.305
CUBESAT XI-V 26 Jul 06:45:42 06:49:18 22° 266° (W) 06:52:54 437.345
AO-7 26 Jul 06:47:53 06:54:58 32° 304° (WNW) 07:02:03 29.400- 29.500
LilacSat-2 26 Jul 07:00:59 07:04:28 31° 96° (E) 07:07:54 437.200
RS-15 26 Jul 07:06:35 07:17:26 53° 111° (ESE) 07:28:50 29.354- 29.394
Cubesat XI-IV 26 Jul 07:17:27 07:22:39 48° 100° (E) 07:27:47 437.490
DOVE 4 26 Jul 07:24:33 07:28:46 25° 94° (E) 07:33:03 437.250
GOMX 1 26 Jul 07:24:43 07:29:37 50° 99° (E) 07:34:47 467.674
CUTE-I 26 Jul 07:41:25 07:46:48 81° 103° (ESE) 07:52:08 437.470
STRAND 1 26 Jul 07:43:30 07:48:39 87° 256° (WSW) 07:53:51 437.568
HO-68 26 Jul 07:46:24 07:50:03 14° 88° (E) 07:53:41 435.675
CINEMA 3 26 Jul 07:47:03 07:48:56 12° 88° (E) 07:50:47 145.822/145.860
AIST 2 26 Jul 07:47:28 07:50:49 24° 247° (WSW) 07:54:10 435.215
BRITE-PL 26 Jul 07:54:40 07:59:07 41° 288° (WNW) 08:03:54 437.365/2234.400
HORYU 2 26 Jul 07:57:27 07:58:49 11° 300° (WNW) 08:00:10 437.375
CUTE 1.7 + AOD 2 26 Jul 08:03:13 08:04:04 11° 89° (E) 08:04:56 437.475
NOAA 15 26 Jul 08:05:50 08:10:52 47° 290° (WNW) 08:15:53 137.62
NOAA 18 26 Jul 08:07:24 08:12:54 65° 288° (WNW) 08:18:21 137.9125
O/OREOS (USA 219) 26 Jul 08:16:01 08:19:43 25° 257° (WSW) 08:23:25 437.305
SO-50 26 Jul 08:23:03 08:27:20 31° 114° (ESE) 08:31:37 436.795
PRISM 26 Jul 08:34:45 08:38:34 40° 71° (ENE) 08:42:24 437.425
LilacSat-2 26 Jul 08:35:45 08:38:34 19° 293° (WNW) 08:41:20 437.200
YUBILEINY 26 Jul 08:37:20 08:41:28 14° 74° (ENE) 08:45:36 435.215
SEEDS 26 Jul 08:42:31 08:45:44 21° 94° (E) 08:48:55 437.485
COMPASS 1 26 Jul 08:56:29 08:59:40 21° 94° (E) 09:02:49 437.405
Cubesat XI-IV 26 Jul 08:58:14 09:02:23 23° 297° (WNW) 09:06:31 437.490
Cosmos 2491 26 Jul 08:59:10 09:07:43 53° 76° (ENE) 09:16:14 435.465 / 435.565
CUBEBUG 2 26 Jul 09:00:47 09:04:12 20° 92° (E) 09:07:33 437.445
DOVE 4 26 Jul 09:01:45 09:06:32 42° 289° (WNW) 09:11:28 437.250
GOMX 1 26 Jul 09:03:40 09:07:23 21° 294° (WNW) 09:11:15 467.674
RS-15 26 Jul 09:18:42 09:29:57 53° 315° (NW) 09:41:50 29.354- 29.394
CINEMA 3 26 Jul 09:21:34 09:26:37 80° 283° (WNW) 09:31:37 145.822/145.860
UNISAT 6 26 Jul 09:22:23 09:24:40 14° 61° (ENE) 09:26:57 437.425
CANX-2 26 Jul 09:22:28 09:26:42 81° 282° (WNW) 09:30:53 2200.000
CUTE-I 26 Jul 09:23:17 09:26:09 15° 301° (WNW) 09:29:00 437.470
AAUSAT CUBESAT 2 26 Jul 09:25:29 09:29:17 35° 97° (E) 09:33:03 437.432
Oscar 11 26 Jul 09:28:41 09:31:20 16° 92° (E) 09:33:57 145.826/435.025
HO-68 26 Jul 09:31:30 09:38:46 84° 106° (ESE) 09:45:57 435.675
CUTE 1.7 + AOD 2 26 Jul 09:36:10 09:40:21 65° 285° (WNW) 09:44:30 437.475
ANTELSAT 26 Jul 09:58:49 10:02:50 30° 68° (ENE) 10:06:55 437.575/2403.000
DELFI C3 26 Jul 09:58:57 10:00:53 13° 91° (E) 10:02:49 145.870
SO-50 26 Jul 10:03:15 10:07:45 36° 312° (NW) 10:12:14 436.795
PRISM 26 Jul 10:11:30 10:14:04 16° 267° (W) 10:16:37 437.425
UWE-3 26 Jul 10:16:32 10:21:12 81° 103° (ESE) 10:25:43 435.000/436.395/437.385
SEEDS 26 Jul 10:17:46 10:21:28 31° 290° (WNW) 10:25:09 437.485
FUNcube-1 26 Jul 10:19:23 10:23:47 52° 99° (E) 10:28:05 145.935
ZACube-1 26 Jul 10:19:40 10:24:08 57° 100° (E) 10:28:28 437.345
YUBILEINY 26 Jul 10:27:54 10:36:38 76° 94° (E) 10:45:28 435.215
COMPASS 1 26 Jul 10:31:36 10:35:16 31° 290° (WNW) 10:38:54 437.405
CUBEBUG 2 26 Jul 10:36:31 10:41:02 44° 288° (WNW) 10:45:24 437.445
TIGRISAT 26 Jul 10:40:06 10:44:42 75° 75° (ENE) 10:49:24 435.000
NANOSAT C BR1 26 Jul 10:46:39 10:48:54 14° 63° (ENE) 10:51:11 145.865
DUCHIFAT 1 26 Jul 10:51:18 10:53:42 15° 64° (ENE) 10:56:06 145.980
Cosmos 2504 26 Jul 10:55:50 11:03:56 42° 87° (E) 11:12:02 435.465 / 435.565
UNISAT 6 26 Jul 10:56:09 11:00:45 71° 259° (WSW) 11:05:28 437.425
Cosmos 2491 26 Jul 10:56:36 11:04:09 34° 276° (W) 11:11:43 435.465 / 435.565
M-CUBED/EXP-1 PRIME 26 Jul 11:00:24 11:04:55 44° 104° (ESE) 11:09:24 437.505
AAUSAT CUBESAT 2 26 Jul 11:01:34 11:04:32 19° 293° (WNW) 11:07:28 437.432
CINEMA 3 26 Jul 11:01:43 11:02:53 11° 301° (WNW) 11:04:04 145.822/145.860
JAS-2 26 Jul 11:01:53 11:02:49 10° 57° (ENE) 11:03:45 435.910
Oscar 11 26 Jul 11:03:34 11:07:42 46° 288° (WNW) 11:11:48 145.826/435.025
QB50P1 26 Jul 11:07:05 11:10:30 24° 67° (ENE) 11:13:58 145.935-145.965
BUGSAT 1 26 Jul 11:11:56 11:12:45 11° 61° (ENE) 11:13:36 437.445
POPSAT HIP 1 26 Jul 11:13:13 11:16:49 27° 68° (ENE) 11:20:28 437.405
HO-68 26 Jul 11:20:36 11:25:37 21° 305° (NW) 11:30:37 435.675
AUBIESAT-1 26 Jul 11:27:22 11:32:01 70° 107° (ESE) 11:36:37 437.475
DELFI C3 26 Jul 11:32:13 11:35:59 45° 287° (WNW) 11:39:44 145.870
QB50P2 26 Jul 11:33:18 11:37:24 49° 72° (ENE) 11:41:32 145.880/145.840
ANTELSAT 26 Jul 11:35:30 11:39:29 28° 265° (W) 11:43:33 437.575/2403.000
POLYITAN 1 26 Jul 11:35:55 11:40:02 50° 73° (ENE) 11:44:11 437.675
RS-15 26 Jul 11:36:44 11:46:12 26° 347° (NNW) 11:55:57 29.354- 29.394
HUMSAT D 26 Jul 11:43:24 11:47:37 78° 284° (WNW) 11:51:45 437.325/437.525
UWE-3 26 Jul 11:55:22 11:56:56 12° 300° (WNW) 11:58:28 435.000/436.395/437.385
FUNcube-1 26 Jul 11:56:49 11:59:34 16° 297° (WNW) 12:02:17 145.935
ZACube-1 26 Jul 11:57:19 11:59:55 15° 297° (WNW) 12:02:29 437.345
ESTCUBE 1 26 Jul 12:04:00 12:07:53 28° 96° (E) 12:11:46 437.505/2401.250
NANOSAT C BR1 26 Jul 12:20:02 12:24:10 55° 260° (W) 12:28:22 145.865
TIGRISAT 26 Jul 12:20:32 12:21:56 11° 272° (W) 12:23:20 435.000
DUCHIFAT 1 26 Jul 12:24:51 12:28:57 52° 260° (W) 12:33:07 145.980
VELOX 1 26 Jul 12:24:57 12:28:45 27° 96° (E) 12:32:32 145.980
YUBILEINY 26 Jul 12:27:34 12:34:23 24° 296° (WNW) 12:41:17 435.215
CUBEBUG 1 26 Jul 12:28:35 12:32:37 34° 97° (E) 12:36:39 437.445
SPROUT 26 Jul 12:28:48 12:31:07 14° 91° (E) 12:33:24 437.525
M-CUBED/EXP-1 PRIME 26 Jul 12:35:29 12:39:07 23° 299° (WNW) 12:42:46 437.505
JAS-2 26 Jul 12:41:02 12:47:08 73° 74° (ENE) 12:52:37 435.910
Oscar 19 26 Jul 12:41:05 12:44:49 21° 63° (ENE) 12:48:34 437.125/150
QB50P1 26 Jul 12:42:26 12:46:10 30° 264° (W) 12:49:55 145.935-145.965
BUGSAT 1 26 Jul 12:43:26 12:47:30 73° 259° (WSW) 12:51:39 437.445
Cosmos 2504 26 Jul 12:48:48 12:57:12 46° 286° (WNW) 13:05:39 435.465 / 435.565
POPSAT HIP 1 26 Jul 12:48:59 12:52:33 26° 265° (W) 12:56:09 437.405
AIST 1 26 Jul 13:03:14 13:05:37 15° 85° (E) 13:08:01
AUBIESAT-1 26 Jul 13:03:15 13:05:55 15° 303° (WNW) 13:08:34 437.475
AISAT 26 Jul 13:09:12 13:13:41 87° 106° (ESE) 13:18:09 437.250
50 SAT 26 Jul 13:10:21 13:13:58 78° 283° (WNW) 13:17:32 437.505
QB50P2 26 Jul 13:11:05 13:13:29 15° 269° (W) 13:15:53 145.880/145.840
DX 1 26 Jul 13:12:21 13:16:42 64° 101° (ESE) 13:21:03 434.975-435.025
POLYITAN 1 26 Jul 13:13:47 13:16:08 14° 269° (W) 13:18:29 437.675
TISAT 1 26 Jul 13:27:40 13:30:02 14° 91° (E) 13:32:23 437.305
UKube-1 26 Jul 13:27:50 13:32:11 76° 103° (ESE) 13:36:30 .
ESTCUBE 1 26 Jul 13:40:49 13:44:38 28° 292° (WNW) 13:48:25 437.505/2401.250
Gurwin Techsat 1B 26 Jul 13:52:22 13:57:20 42° 69° (ENE) 14:02:21 435.225
RS-15 26 Jul 13:53:53 14:04:11 30° 23° (NNE) 14:14:33 29.354- 29.394
AO-85 26 Jul 13:57:15 14:01:57 31° 114° (ESE) 14:06:31 145.980
VELOX 1 26 Jul 14:01:21 14:05:10 29° 292° (WNW) 14:08:58 145.980
SPROUT 26 Jul 14:03:08 14:07:21 52° 287° (WNW) 14:11:33 437.525
AO-7 26 Jul 14:04:23 14:10:11 21° 50° (NE) 14:15:59 29.400- 29.500
CUBEBUG 1 26 Jul 14:05:17 14:08:42 23° 293° (WNW) 14:12:08 437.445
ITAMSAT 1 26 Jul 14:13:02 14:17:06 23° 64° (ENE) 14:21:09 435.822/435.867
Oscar 19 26 Jul 14:18:49 14:23:46 51° 260° (W) 14:28:46 437.125/150
JAS-2 26 Jul 14:29:13 14:32:37 15° 268° (W) 14:35:51 435.910
CUSAT 1 26 Jul 14:34:10 14:36:05 16° 76° (ENE) 14:38:13 437.405
SWISSCUBE 26 Jul 14:37:24 14:40:40 18° 92° (E) 14:43:55 437.505
AIST 1 26 Jul 14:38:45 14:42:48 43° 282° (WNW) 14:46:53
GONETS M04 26 Jul 14:38:59 14:45:01 21° 79° (ENE) 14:51:04
AISAT 26 Jul 14:48:46 14:49:27 10° 300° (WNW) 14:50:08 437.250
DX 1 26 Jul 14:50:17 14:52:22 13° 298° (WNW) 14:54:26 434.975-435.025
BEESAT 26 Jul 14:58:19 15:02:20 27° 95° (E) 15:06:19 436.000
TISAT 1 26 Jul 15:01:50 15:05:57 49° 287° (WNW) 15:10:03 437.305
UKube-1 26 Jul 15:06:16 15:07:36 11° 300° (WNW) 15:08:57 .
ITUPSAT 1 26 Jul 15:20:29 15:25:02 43° 99° (E) 15:29:34 437.325
Gurwin Techsat 1B 26 Jul 15:33:07 15:37:26 25° 266° (W) 15:41:46 435.225
AO-85 26 Jul 15:37:19 15:42:21 41° 310° (NW) 15:47:12 145.980
MOZHAYETS 4 26 Jul 15:48:55 15:49:56 11° 88° (E) 15:50:58
Cosmos 2499 26 Jul 15:50:22 15:58:40 47° 88° (E) 16:06:49 435.465 / 435.565
ITAMSAT 1 26 Jul 15:51:13 15:56:15 47° 260° (W) 16:01:18 435.822/435.867
AO-7 26 Jul 15:53:26 16:01:48 85° 71° (ENE) 16:10:14 29.400- 29.500
RS-15 26 Jul 16:07:09 16:19:31 69° 52° (NE) 16:31:43 29.354- 29.394
SWISSCUBE 26 Jul 16:14:08 16:18:43 48° 289° (WNW) 16:23:16 437.505
CUSAT 1 26 Jul 16:15:47 16:17:59 18° 264° (W) 16:20:29 437.405
DANDE 26 Jul 16:30:52 16:33:19 37° 263° (W) 16:35:57 436.750
GONETS M04 26 Jul 16:32:04 16:40:46 79° 279° (W) 16:49:32
BEESAT 26 Jul 16:35:52 16:40:08 33° 292° (WNW) 16:44:21 436.000
SO-50 26 Jul 16:53:53 16:58:05 32° 47° (NE) 17:02:10 436.795
KKS-1 26 Jul 16:54:13 16:58:36 49° 100° (E) 17:02:57 437.445
ITUPSAT 1 26 Jul 16:59:00 17:02:34 21° 296° (WNW) 17:06:08 437.325
PHONESAT 2.4 26 Jul 17:03:31 17:04:32 11° 149° (SSE) 17:05:34 2401.200-2431.200
Cubesat XI-IV 26 Jul 17:03:53 17:05:54 12° 57° (ENE) 17:07:55 437.490
HORYU 2 26 Jul 17:16:25 17:20:54 78° 74° (ENE) 17:25:25 437.375
MOZHAYETS 4 26 Jul 17:23:03 17:27:38 75° 284° (WNW) 17:32:10
CUTE-I 26 Jul 17:25:48 17:29:30 19° 61° (ENE) 17:33:13 437.470
BRITE-PL 26 Jul 17:29:05 17:32:20 22° 67° (ENE) 17:35:35 437.365/2234.400
STARS 26 Jul 17:34:56 17:39:23 68° 103° (ESE) 17:43:48 437.465
Cosmos 2499 26 Jul 17:43:36 17:51:51 42° 287° (WNW) 17:59:57 435.465 / 435.565
LilacSat-2 26 Jul 17:44:02 17:46:39 18° 67° (ENE) 17:49:18 437.200
NOAA 15 26 Jul 17:47:03 17:51:50 37° 68° (ENE) 17:56:38 137.62
AO-7 26 Jul 17:49:41 17:55:29 20° 269° (W) 18:01:20 29.400- 29.500
NOAA 18 26 Jul 17:54:16 17:59:14 35° 66° (ENE) 18:04:14 137.9125
BEESAT 3 26 Jul 18:09:06 18:10:28 12° 109° (ESE) 18:11:49 437.485
HO-68 26 Jul 18:17:28 18:20:40 14° 49° (NE) 18:23:53 435.675
RS-15 26 Jul 18:20:28 18:31:16 38° 254° (WSW) 18:41:55 29.354- 29.394
DOVE 4 26 Jul 18:31:14 18:34:32 22° 65° (ENE) 18:37:58 437.250
KKS-1 26 Jul 18:31:51 18:34:46 17° 296° (WNW) 18:37:41 437.445
GOMX 1 26 Jul 18:33:56 18:37:57 49° 73° (ENE) 18:42:08 467.674
GONETS M04 26 Jul 18:33:59 18:39:09 17° 301° (WNW) 18:44:23
SO-50 26 Jul 18:34:26 18:38:31 31° 246° (WSW) 18:42:29 436.795
PHONESAT 2.4 26 Jul 18:37:38 18:40:32 39° 164° (SSE) 18:43:27 2401.200-2431.200
Cubesat XI-IV 26 Jul 18:39:43 18:45:06 82° 75° (ENE) 18:50:31 437.490
CUBESAT XI-V 26 Jul 18:40:22 18:45:01 87° 106° (ESE) 18:49:38 437.345
PCSat 26 Jul 18:43:45 18:46:20 14° 103° (ESE) 18:48:54 145.827
CINEMA 3 26 Jul 18:50:06 18:51:24 11° 59° (ENE) 18:52:44 145.822/145.860
CUTE-I 26 Jul 19:03:45 19:09:03 61° 259° (WSW) 19:14:24 437.470
BRITE-PL 26 Jul 19:07:06 19:10:43 29° 264° (W) 19:14:22 437.365/2234.400
STARS 26 Jul 19:13:09 19:15:10 13° 299° (WNW) 19:17:11 437.465
LilacSat-2 26 Jul 19:17:09 19:20:41 34° 263° (W) 19:24:17 437.200
NOAA 15 26 Jul 19:27:12 19:31:40 28° 265° (W) 19:36:09 137.62
NOAA 18 26 Jul 19:34:56 19:39:52 33° 263° (W) 19:44:51 137.9125
SEEDS 26 Jul 19:35:10 19:37:54 17° 65° (ENE) 19:40:38 437.485
BEESAT 3 26 Jul 19:43:44 19:47:36 62° 305° (NW) 19:51:32 437.485
COMPASS 1 26 Jul 19:48:15 19:50:52 16° 65° (ENE) 19:53:30 437.405
BEESAT 2 26 Jul 19:48:28 19:52:24 79° 121° (ESE) 19:56:23 435.950
STRAND 1 26 Jul 19:54:01 19:58:31 30° 96° (E) 20:02:58 437.568
CUBEBUG 2 26 Jul 19:59:29 20:02:35 18° 64° (ENE) 20:05:44 437.445
HO-68 26 Jul 19:59:57 20:07:02 65° 69° (ENE) 20:14:09 435.675
DOVE 4 26 Jul 20:08:07 20:12:01 34° 264° (W) 20:16:07 437.250
PHONESAT 2.4 26 Jul 20:13:49 20:16:53 66° 180° (S) 20:19:57 2401.200-2431.200
GOMX 1 26 Jul 20:14:20 20:16:26 13° 270° (W) 20:18:35 467.674
CANX-2 26 Jul 20:15:06 20:19:22 74° 76° (ENE) 20:23:39 2200.000
AAUSAT CUBESAT 2 26 Jul 20:16:14 20:19:41 25° 69° (ENE) 20:23:06 437.432
CUBESAT XI-V 26 Jul 20:20:40 20:21:40 11° 300° (WNW) 20:22:40 437.345
CINEMA 3 26 Jul 20:23:15 20:27:44 86° 254° (WSW) 20:32:29 145.822/145.860
PCSat 26 Jul 20:23:32 20:28:58 82° 301° (WNW) 20:34:26 145.827
Cubesat XI-IV 26 Jul 20:23:33 20:25:48 13° 271° (W) 20:28:04 437.490
Oscar 11 26 Jul 20:24:29 20:26:46 14° 63° (ENE) 20:29:04 145.826/435.025
CUTE 1.7 + AOD 2 26 Jul 20:28:39 20:32:56 90° 20° (NNE) 20:37:13 437.475
YUBILEINY 26 Jul 20:37:54 20:46:02 39° 71° (ENE) 20:54:06 435.215
O/OREOS (USA 219) 26 Jul 20:49:09 20:53:10 34° 105° (ESE) 20:57:11 437.305
Cosmos 2504 26 Jul 20:50:16 20:54:18 14° 57° (ENE) 20:58:13 435.465 / 435.565
SEEDS 26 Jul 21:09:13 21:13:15 44° 261° (W) 21:17:19 437.485
UWE-3 26 Jul 21:13:14 21:17:45 68° 75° (ENE) 21:22:24 435.000/436.395/437.385
FUNcube-1 26 Jul 21:14:46 21:19:02 43° 71° (ENE) 21:23:23 145.935
ZACube-1 26 Jul 21:15:19 21:19:38 46° 72° (ENE) 21:24:03 437.345
COMPASS 1 26 Jul 21:22:04 21:26:05 44° 261° (W) 21:30:06 437.405
BEESAT 2 26 Jul 21:28:42 21:30:45 14° 320° (NW) 21:32:49 435.950
STRAND 1 26 Jul 21:33:07 21:37:40 33° 293° (WNW) 21:42:10 437.568
CUBEBUG 2 26 Jul 21:34:19 21:38:45 50° 261° (W) 21:43:21 437.445
AIST 2 26 Jul 21:44:17 21:48:20 62° 120° (ESE) 21:52:26 435.215
M-CUBED/EXP-1 PRIME 26 Jul 21:47:24 21:51:02 52° 68° (ENE) 21:55:02 437.505
HO-68 26 Jul 21:49:37 21:55:14 24° 267° (W) 22:00:53 435.675
PHONESAT 2.4 26 Jul 21:50:20 21:53:13 37° 197° (SSW) 21:56:06 2401.200-2431.200
PRISM 26 Jul 21:50:38 21:54:42 63° 102° (ESE) 21:58:46 437.425
AAUSAT CUBESAT 2 26 Jul 21:51:32 21:55:04 27° 265° (W) 21:58:36 437.432
Oscar 11 26 Jul 21:58:08 22:02:25 58° 260° (W) 22:06:44 145.826/435.025
Cosmos 2491 26 Jul 22:00:32 22:09:01 61° 91° (E) 22:17:31 435.465 / 435.565
ISS 26 Jul 22:03:43 22:06:53 54° 142° (SE) 22:10:06 145.825
PCSat 26 Jul 22:09:56 22:13:13 16° 320° (NW) 22:16:32 145.827
AUBIESAT-1 26 Jul 22:13:49 22:17:36 88° 79° (E) 22:21:44 437.475
DELFI C3 26 Jul 22:17:52 22:21:51 79° 259° (W) 22:25:50 145.870
AO-85 26 Jul 22:28:56 22:32:46 27° 45° (NE) 22:36:19 145.980
O/OREOS (USA 219) 26 Jul 22:28:56 22:32:37 24° 303° (WNW) 22:36:18 437.305
TIGRISAT 26 Jul 22:32:44 22:35:31 16° 90° (E) 22:38:16 435.000
HUMSAT D 26 Jul 22:34:22 22:38:40 74° 75° (ENE) 22:42:59 437.325/437.525
YUBILEINY 26 Jul 22:34:38 22:42:59 48° 272° (W) 22:51:16 435.215
Cosmos 2504 26 Jul 22:41:13 22:49:28 73° 80° (E) 22:57:03 435.465 / 435.565
UNISAT 6 26 Jul 22:48:10 22:51:56 24° 94° (E) 22:55:38 437.425
FUNcube-1 26 Jul 22:52:15 22:55:27 19° 268° (W) 22:58:42 145.935
UWE-3 26 Jul 22:52:49 22:54:41 12° 271° (W) 22:56:36 435.000/436.395/437.385
ZACube-1 26 Jul 22:53:07 22:56:10 18° 269° (W) 22:59:14 437.345
